Regional Weather Roundup
Issued by NWS

Home | Current Version | Previous Version | Graphics & Text | Print | Product List | Glossary On
Versions: 1 2 3 4 5 6 7 8 9 10 11 12 13 14 15 16 17 18 19 20 21 22 23 24 25 26 27 28 29 30 31 32 33 34 35 36 37 38 39 40 41 42 43 44 45 46 47 48 49 50
838
ASUS43 KIND 231459
RWRIN

WEATHER ROUNDUP FOR INDIANA
NATIONAL WEATHER SERVICE INDIANAPOLIS IN
1100 AM EDT FRI JUN 23 2017

NOTE: "FAIR" INDICATES FEW OR NO CLOUDS BELOW 12,000 FEET WITH NO
SIGNIFICANT WEATHER AND/OR OBSTRUCTIONS TO VISIBILITY.

* - STATION DOES NOT REPORT WEATHER SUCH AS PRECIPITATION OR FOG.

+ - STATION NOT QUALITY CONTROLLED BY THE NATIONAL WEATHER SERVICE.
    USE DATA WITH CAUTION...ESPECIALLY DEWPOINT AND RELATIVE
    HUMIDITY OBSERVATIONS.

INZ001>003-010>013-019-020-231600-
NORTHWEST INDIANA

CITY           SKY/WX    TMP DP  RH WIND       PRES   REMARKS
GARY /AIRPORT/ CLOUDY    68  64  88 N7        29.69F
KNOX *+        CLOUDY    66  66 100 NW9       29.68F
MICHIGAN CITY+ CLOUDY    66  66 100 N6        29.69F
MONTICELLO +   CLOUDY    72  68  88 NW10      29.67F
RENSSELAER +   LGT RAIN  68  64  88 CALM      29.66F

$$

LMZ046-743>745-231600-
SOUTHERN LAKE MICHIGAN

STATION/POSITION TIME  TEMP    WIND        PRES    WAVE
                       AIR SEA DIR/SP/G            HT
                 (UTC) (F)     (DEG/KT/KT) (MB)    (FT)
BURNS HARBOR     1440   65      20/  6/ 10 1006.4S
MICHIGAN CITY    1430   65     350/ 13/ 14   N/A
5NW MICH CITY    1450   66 68   20/  4/  6   N/A     2

$$

INZ004-005-014>016-021>024-231600-
NORTH CENTRAL INDIANA

CITY           SKY/WX    TMP DP  RH WIND       PRES   REMARKS
ELKHART        CLOUDY    70  66  88 W12       29.67R
GOSHEN         CLOUDY    73  66  78 W15       29.66R
SOUTH BEND     LGT RAIN  66  66 100 NW12      29.68S FOG

$$

INZ006>009-017-018-025>027-231600-
NORTHEAST INDIANA

CITY           SKY/WX    TMP DP  RH WIND       PRES   REMARKS
FORT WAYNE     CLOUDY    75  66  73 NW8       29.64F
KENDALLVILLE + PTSUNNY  N/A N/A N/A W12       29.65S

$$

INZ028-029-035-036-043>045-051>053-231600-
WEST CENTRAL INDIANA

CITY           SKY/WX    TMP DP  RH WIND       PRES   REMARKS
CRAWFORDSVL +  CLOUDY    67  67 100 NW6       29.72R
LAFAYETTE      LGT RAIN  70  68  93 CALM      29.67F
TERRE HAUTE    CLOUDY    77  73  87 SW9       29.71R

$$

INZ030>032-037>040-046>048-054>057-064-065-231600-
CENTRAL INDIANA

CITY           SKY/WX    TMP DP  RH WIND       PRES   REMARKS
ANDERSON       PTSUNNY   75  70  83 SW9       29.71
COLUMBUS       LGT RAIN  73  72  94 SW17      29.74S FOG
GREENWOOD *+   CLOUDY    74  73  96 SW9       29.72F
INDIANAPOLIS   RAIN      73  71  93 W10       29.71S FOG
-EAGLE CREEK   LGT RAIN  74  71  91 SW14G22   29.69S
KOKOMO +       CLOUDY    71  67  87 NW3       29.70R
MT COMFORT *+  CLOUDY    73  72  94 S8G17     29.71F VSB 1/2
SHELBYVILLE    HVY RAIN  76  72  87 SW15      29.71F FOG

$$

INZ033-034-041-042-049-050-058-059-231600-
EAST CENTRAL INDIANA

CITY           SKY/WX    TMP DP  RH WIND       PRES   REMARKS
MUNCIE         HVY RAIN  70  66  87 CALM      29.72R VSB 1
RICHMOND +     LGT RAIN  72  72 100 SW15      29.75S

$$

INZ060-061-067>069-081>083-085>088-231600-
SOUTHWEST INDIANA

CITY           SKY/WX    TMP DP  RH WIND       PRES   REMARKS
EVANSVILLE     CLOUDY    76  72  87 S9        29.74F FOG
HUNTINGBURG *+ LGT RAIN  75  73  93 S8        29.75F

$$

INZ062-063-066-070>080-084-089>092-231600-
SOUTH CENTRAL AND SOUTHEAST INDIANA

CITY           SKY/WX    TMP DP  RH WIND       PRES   REMARKS
BLOOMINGTON    RAIN      74  70  87 SW15      29.74F FOG
MADISON *+     PTSUNNY   79  72  78 SW15G21   29.79F
SEYMOUR +      LGT RAIN  75  73  94 SW7       29.76S

$$





USA.gov is the U.S. government's official web portal to all federal, state and local government web resources and services.